{"data":{"norad_id":64705,"epoch":"2026-09-20T05:20:52.448064Z","epoch_age_seconds":151517,"freshness":"FRESH","line1":"1 64705U 25142K   26263.22282926  .00011259  00000+0  39540-3 0  9999","line2":"2 64705  70.0005 181.8326 0002833 271.8193  88.2658 15.29591582 68796","mean_motion":15.29591582,"eccentricity":0.0002833,"inclination_deg":70.0005,"raan_deg":181.8326,"arg_perigee_deg":271.8193,"mean_anomaly_deg":88.2658,"bstar":0.0003954,"rev_number":6879,"period_min":94.142777519548,"perigee_km":475.0902285692,"apogee_km":478.97436749347,"semimajor_km":6855.1692980313,"source":"CELESTRAK","updated_at":"2026-09-21T09:00:35.404544Z"}}